Regional Weather Roundup
Issued by NWS

Home | Current Version | Previous Version | Text Only | Print | Product List | Glossary On
Versions: 1 2 3 4 5 6 7 8 9 10 11 12 13 14 15 16 17 18 19 20 21 22 23 24 25 26 27 28
000
ASUS46 KSEW 220810
RWRWA

WASHINGTON REGIONAL WEATHER ROUNDUP
NATIONAL WEATHER SERVICE SEATTLE WA
100 AM PDT SUN OCT 22 2017

NOTE:"FAIR" INDICATES FEW OR NO CLOUDS BELOW 12,000 FEET WITH NO
SIGNIFICANT WEATHER AND/OR OBSTRUCTIONS TO VISIBILITY.

WAZ507-509-555>559-220900-
SEATTLE, TACOMA, EVERETT, AND VICINITY

CITY           SKY/WX    TMP DP  RH WIND       PRES   REMARKS
EVERETT        CLOUDY    54  52  93 S20G29    29.66R
BOEING FIELD   LGT RAIN  56  53  90 S18G29    29.69R
RENTON         LGT RAIN  57  56  96 S13       29.70R
SEATAC AIRPORT LGT RAIN  55  53  93 S17G26    29.70R
JBLM-MCCHORD   LGT RAIN  55  55 100 SW8       29.75R
PUYALLUP       RAIN      55  55 100 CALM      29.75R
BREMERTON      CLOUDY    54  52  93 SW18G30   29.68S
JBLM-FT LEWIS  LGT RAIN  55  55 100 S8        29.74R
TACOMA NARROWS LGT RAIN  54  54 100 S14       29.73R
$$

WAZ001-503-506-510-514-515-220900-
NORTH INTERIOR

CITY           SKY/WX    TMP DP  RH WIND       PRES   REMARKS
BELLINGHAM     LGT RAIN  55  52  89 S12G18    29.60R
FRIDAY HARBOR  LGT RAIN  51  51 100 S5        29.63R
EASTSOUND      MOCLDY    54  52  94 S15G21    29.59R
PORT ANGELES   LGT RAIN  52  52 100 CALM      29.63R FOG
EDIZ HOOK      RAIN      51  49  96 NE7       29.63R
PORT TOWNSEND  MOCLDY    50  50 100 CALM      29.64R
NAS WHIDBEY    CLOUDY    55  50  83 SE6       29.67R
ARLINGTON      CLOUDY    51  51 100 S12       29.65R
BURLINGTON     CLOUDY    46  46 100 CALM      29.64R
$$

WAZ020-022-039-040-504-511-512-220900-
SOUTHWEST INTERIOR

CITY           SKY/WX    TMP DP  RH WIND       PRES   REMARKS
SHELTON        LGT RAIN  55  53  93 SW16G28   29.70R FOG
OLYMPIA        LGT RAIN  55  55 100 SW8       29.74R
CHEHALIS       LGT RAIN  55  55 100 S5        29.76R
KELSO          HVY RAIN  57  56  96 SE6       29.84R FOG
VANCOUVER      RAIN      60  59  96 S12G24    29.84R FOG
SCAPPOOSE, OR  RAIN      60  58  92 S7        29.82R FOG
PORTLAND, OR   RAIN      60  58  92 SW20G31   29.85R FOG
$$

WAZ021-516-517-220900-
WASHINGTON COAST

CITY           SKY/WX    TMP DP  RH WIND       PRES   REMARKS
FORKS          LGT RAIN  55  53  93 SW15G28   29.69R
HOQUIAM        LGT RAIN  56  55  97 S22       29.76R
ASTORIA, OR    CLOUDY    58  58 100 S18G36    29.80R
$$

WAZ019-023-024-040-567>569-220900-
CASCADE MOUNTAINS AND COLUMBIA GORGE

CITY           SKY/WX    TMP DP  RH WIND       PRES   REMARKS
STAMPEDE PASS  RAIN      43  42  97 VRB7      29.71S VSB 1/2
TROUTDALE, OR  RAIN      62  57  83 SW21G29   29.85R
HOOD RIVER, OR RAIN      57  54  88 S7G16     29.80S
THE DALLES, OR LGT RAIN  49  47  93 CALM      29.81R
$$

WAZ026-027-041>044-520-521-220900-
EAST SLOPES

CITY           SKY/WX    TMP DP  RH WIND       PRES   REMARKS
OMAK           CLOUDY    40  40 100 SW6       29.71F FOG
WENATCHEE      LGT RAIN  38  37  97 W5        29.75S
ELLENSBURG     RAIN      42  40  92 W5        29.75R FOG
YAKIMA         LGT RAIN  47  44  90 W3        29.75R
SUNNYSIDE ARPT CLOUDY    58  49  72 SE12      29.76R
YAKIMA TC      LGT RAIN  43  41  93 S3        29.73R
$$

WAZ028-034-035-220900-
COLUMBIA BASIN

CITY           SKY/WX    TMP DP  RH WIND       PRES   REMARKS
EPHRATA        LGT RAIN  48  43  82 S6        29.73R
MOSES LAKE     LGT RAIN  47  46  97 N7        29.75R
PASCO            N/A    N/A N/A N/A MISG        N/A
RICHLAND ARPT  CLOUDY    60  49  65 S15G23    29.76S
HERMISTON, OR  CLOUDY    66  48  52 S23G32    29.79R
$$

WAZ036>038-220900-
NORTHEAST WASHINGTON

CITY           SKY/WX    TMP DP  RH WIND       PRES   REMARKS
SPOKANE GEIGER LGT RAIN  48  45  89 S18G28    29.71S
SPOKANE FELTS  CLOUDY    51  46  83 SW21G29   29.72F
FAIRCHILD AFB  LGT RAIN  49  49 100 S21G30    29.71R
COEURDALENE,ID LGT RAIN  47  45  93 S16       29.72F
DEER PARK      LGT RAIN  43  43 100 N3        29.72F FOG
$$

WAZ029>033-220900-
SOUTHEAST WASHINGTON

CITY           SKY/WX    TMP DP  RH WIND       PRES   REMARKS
PULLMAN        RAIN      46  41  82 S14       29.84S
LEWISTON, ID   CLOUDY    54  42  64 S21G36    29.87R
WALLA WALLA    CLOUDY    64  44  48 S24G36    29.81R
PENDLETON, OR  CLOUDY    61  44  53 S25G32    29.83S
$$




USA.gov is the U.S. government's official web portal to all federal, state and local government web resources and services.